When you browse on this site, cookies collect data to enhance your experience and personalize the content and advertising you see.
Visit our Privacy Policy to learn more. By continuing to use the site, you agree to this use of cookies and data.
  • In Lithuania
  • List of Countries
  • For 7 days
  • Water Temperature
  • Satellite Maps
  • Weather Map
  • Weather Widgets
  • user-avatar
    Login

    Hourly Weather Lankaran

    Today, 20 June, Thursday

    Time Temperature Precipitation Wind Pressure Humidity
    00:00 +15°C° 0 mm 1 mps 631 mmHg 47%
    01:00 +14°C° 0 mm 1 mps 631 mmHg 47%
    02:00 +14°C° 0 mm 1 mps 631 mmHg 47%
    03:00 +14°C° 0 mm 1 mps 631 mmHg 46%
    04:00 +15°C° 0 mm 1 mps 631 mmHg 46%
    05:00 +16°C° 0 mm 1 mps 632 mmHg 46%
    06:00 +19°C° 0 mm 1 mps 632 mmHg 46%
    07:00 +20°C° 0 mm 1 mps 633 mmHg 43%
    08:00 +20°C° 0 mm 2 mps 633 mmHg 41%
    09:00 +23°C° 0 mm 2 mps 633 mmHg 38%
    10:00 +22°C° 0 mm 3 mps 633 mmHg 38%
    11:00 +24°C° 0 mm 3 mps 633 mmHg 39%
    12:00 +25°C° 0 mm 4 mps 633 mmHg 39%
    13:00 +23°C° 0 mm 4 mps 633 mmHg 39%
    14:00 +23°C° 0 mm 4 mps 632 mmHg 40%
    15:00 +23°C° 0 mm 4 mps 632 mmHg 40%
    16:00 +22°C° 0 mm 3 mps 631 mmHg 43%
    17:00 +21°C° 0 mm 3 mps 631 mmHg 47%
    18:00 +20°C° 0 mm 2 mps 630 mmHg 50%
    19:00 +18°C° 0 mm 2 mps 630 mmHg 51%
    20:00 +17°C° 0 mm 2 mps 630 mmHg 51%
    21:00 +16°C° 0 mm 1 mps 630 mmHg 52%
    22:00 +16°C° 0 mm 1 mps 630 mmHg 52%
    23:00 +16°C° 0 mm 1 mps 630 mmHg 51%

    Tomorrow, 21 June, Friday

    Time Temperature Precipitation Wind Pressure Humidity
    00:00 +16°C° 0 mm 1 mps 630 mmHg 51%
    01:00 +15°C° 0 mm 1 mps 630 mmHg 53%
    02:00 +15°C° 0 mm 1 mps 630 mmHg 54%
    03:00 +14°C° 0 mm 1 mps 630 mmHg 56%
    04:00 +15°C° 0 mm 1 mps 630 mmHg 56%
    05:00 +16°C° 0 mm 1 mps 631 mmHg 56%
    06:00 +16°C° 0 mm 2 mps 631 mmHg 56%
    07:00 +18°C° 0 mm 2 mps 632 mmHg 53%
    08:00 +19°C° 0 mm 3 mps 632 mmHg 50%
    09:00 +21°C° 0 mm 3 mps 633 mmHg 46%
    10:00 +21°C° 0 mm 4 mps 633 mmHg 47%
    11:00 +21°C° 0 mm 4 mps 633 mmHg 47%
    12:00 +22°C° 0 mm 4 mps 633 mmHg 47%
    13:00 +22°C° 0 mm 4 mps 632 mmHg 49%
    14:00 +21°C° 0 mm 4 mps 632 mmHg 51%
    15:00 +21°C° 0 mm 4 mps 632 mmHg 53%
    16:00 +20°C° 0.1 mm 3 mps 632 mmHg 56%
    17:00 +19°C° 0.1 mm 2 mps 632 mmHg 60%
    18:00 +20°C° 0.1 mm 1 mps 632 mmHg 64%
    19:00 +19°C° 0.2 mm 1 mps 632 mmHg 68%
    20:00 +18°C° 0.2 mm 1 mps 632 mmHg 71%
    21:00 +16°C° 0.2 mm 1 mps 632 mmHg 75%
    22:00 +16°C° 0 mm 1 mps 632 mmHg 75%
    23:00 +16°C° 0 mm 1 mps 632 mmHg 75%

    Day after tomorrow, 22 June, Saturday

    Time Temperature Precipitation Wind Pressure Humidity
    00:00 +15°C° 0 mm 1 mps 632 mmHg 76%
    01:00 +15°C° 0 mm 1 mps 632 mmHg 74%
    02:00 +15°C° 0 mm 1 mps 632 mmHg 73%
    03:00 +14°C° 0 mm 1 mps 632 mmHg 72%
    04:00 +15°C° 0 mm 1 mps 632 mmHg 68%
    05:00 +16°C° 0 mm 1 mps 633 mmHg 64%
    06:00 +18°C° 0 mm 1 mps 633 mmHg 60%
    07:00 +18°C° 0 mm 2 mps 634 mmHg 55%
    08:00 +20°C° 0 mm 2 mps 635 mmHg 50%
    09:00 +21°C° 0 mm 3 mps 635 mmHg 44%
    10:00 +22°C° 0 mm 3 mps 635 mmHg 43%
    11:00 +23°C° 0 mm 4 mps 635 mmHg 42%
    12:00 +25°C° 0 mm 4 mps 635 mmHg 40%
    13:00 +25°C° 0 mm 4 mps 635 mmHg 40%
    14:00 +25°C° 0 mm 4 mps 635 mmHg 40%
    15:00 +25°C° 0 mm 4 mps 635 mmHg 40%
    16:00 +24°C° 0 mm 3 mps 634 mmHg 44%
    17:00 +22°C° 0 mm 3 mps 634 mmHg 48%
    18:00 +21°C° 0 mm 2 mps 634 mmHg 51%
    19:00 +20°C° 0 mm 2 mps 634 mmHg 52%
    20:00 +19°C° 0 mm 1 mps 634 mmHg 52%
    21:00 +18°C° 0 mm 1 mps 634 mmHg 53%
    22:00 +18°C° 0 mm 1 mps 633 mmHg 51%
    23:00 +18°C° 0 mm 1 mps 633 mmHg 50%

    23 June, Sunday

    Time Temperature Precipitation Wind Pressure Humidity
    00:00 +18°C° 0 mm 1 mps 633 mmHg 48%
    01:00 +16°C° 0 mm 1 mps 633 mmHg 48%
    02:00 +16°C° 0 mm 1 mps 633 mmHg 49%
    03:00 +16°C° 0 mm 1 mps 633 mmHg 49%
    04:00 +18°C° 0 mm 1 mps 633 mmHg 49%
    05:00 +20°C° 0 mm 1 mps 634 mmHg 49%
    06:00 +21°C° 0 mm 1 mps 635 mmHg 49%
    07:00 +22°C° 0 mm 1 mps 635 mmHg 48%
    08:00 +23°C° 0 mm 2 mps 636 mmHg 46%
    09:00 +25°C° 0 mm 3 mps 636 mmHg 44%
    10:00 +26°C° 0 mm 3 mps 636 mmHg 43%
    11:00 +26°C° 0 mm 3 mps 636 mmHg 43%
    12:00 +27°C° 0 mm 3 mps 636 mmHg 42%
    13:00 +27°C° 0 mm 3 mps 636 mmHg 41%
    14:00 +27°C° 0 mm 3 mps 636 mmHg 41%
    15:00 +28°C° 0 mm 3 mps 636 mmHg 40%
    16:00 +26°C° 0 mm 3 mps 635 mmHg 44%
    17:00 +25°C° 0 mm 3 mps 635 mmHg 48%
    18:00 +24°C° 0 mm 3 mps 634 mmHg 52%
    19:00 +21°C° 0 mm 2 mps 634 mmHg 52%
    20:00 +20°C° 0 mm 2 mps 634 mmHg 53%
    21:00 +20°C° 0 mm 1 mps 634 mmHg 54%
    22:00 +19°C° 0 mm 1 mps 634 mmHg 52%
    23:00 +19°C° 0 mm 1 mps 634 mmHg 50%

    24 June, Monday

    Time Temperature Precipitation Wind Pressure Humidity
    00:00 +19°C° 0 mm 1 mps 633 mmHg 49%
    01:00 +19°C° 0 mm 1 mps 633 mmHg 49%
    02:00 +18°C° 0 mm 1 mps 633 mmHg 49%
    03:00 +18°C° 0 mm 1 mps 633 mmHg 50%
    04:00 +19°C° 0 mm 1 mps 633 mmHg 49%
    05:00 +20°C° 0 mm 1 mps 634 mmHg 48%
    06:00 +21°C° 0 mm 1 mps 634 mmHg 47%
    07:00 +23°C° 0 mm 1 mps 635 mmHg 43%
    08:00 +24°C° 0 mm 2 mps 635 mmHg 40%
    09:00 +26°C° 0 mm 3 mps 636 mmHg 36%
    10:00 +27°C° 0 mm 3 mps 636 mmHg 36%
    11:00 +27°C° 0 mm 4 mps 636 mmHg 36%
    12:00 +28°C° 0 mm 4 mps 636 mmHg 36%
    13:00 +28°C° 0 mm 4 mps 636 mmHg 37%
    14:00 +28°C° 0 mm 4 mps 635 mmHg 37%
    15:00 +27°C° 0 mm 5 mps 635 mmHg 37%
    16:00 +26°C° 0 mm 4 mps 634 mmHg 41%
    17:00 +25°C° 0 mm 3 mps 634 mmHg 44%
    18:00 +24°C° 0 mm 3 mps 634 mmHg 48%
    19:00 +21°C° 0 mm 2 mps 634 mmHg 45%
    20:00 +20°C° 0 mm 2 mps 633 mmHg 42%
    21:00 +19°C° 0 mm 2 mps 633 mmHg 39%
    22:00 +20°C° 0 mm 1 mps 633 mmHg 38%
    23:00 +20°C° 0 mm 1 mps 633 mmHg 36%

    25 June, Tuesday

    Time Temperature Precipitation Wind Pressure Humidity
    00:00 +20°C° 0 mm 1 mps 633 mmHg 34%
    01:00 +19°C° 0 mm 1 mps 633 mmHg 35%
    02:00 +19°C° 0 mm 1 mps 633 mmHg 35%
    03:00 +18°C° 0 mm 1 mps 633 mmHg 36%
    04:00 +19°C° 0 mm 1 mps 633 mmHg 37%
    05:00 +21°C° 0 mm 1 mps 634 mmHg 37%
    06:00 +22°C° 0 mm 1 mps 634 mmHg 38%
    07:00 +23°C° 0 mm 1 mps 635 mmHg 34%
    08:00 +25°C° 0 mm 2 mps 635 mmHg 30%
    09:00 +26°C° 0 mm 3 mps 636 mmHg 26%
    10:00 +27°C° 0 mm 3 mps 636 mmHg 26%
    11:00 +28°C° 0 mm 3 mps 636 mmHg 26%
    12:00 +29°C° 0 mm 3 mps 636 mmHg 26%
    13:00 +29°C° 0 mm 3 mps 636 mmHg 26%
    14:00 +29°C° 0 mm 3 mps 636 mmHg 27%
    15:00 +28°C° 0 mm 3 mps 635 mmHg 27%
    16:00 +27°C° 0 mm 3 mps 635 mmHg 31%
    17:00 +26°C° 0 mm 2 mps 634 mmHg 35%
    18:00 +25°C° 0 mm 2 mps 634 mmHg 38%
    19:00 +23°C° 0 mm 2 mps 634 mmHg 38%
    20:00 +22°C° 0 mm 1 mps 634 mmHg 37%
    21:00 +20°C° 0 mm 1 mps 633 mmHg 36%
    22:00 +20°C° 0 mm 1 mps 633 mmHg 35%
    23:00 +20°C° 0 mm 1 mps 633 mmHg 34%
    Show more